Showing default

HEAD-3E, 57630

Orbit data source: Space-Track

HEAD-3E, 57630 is a payload satellite owned by HEAD (CN) in LEO that was launched on Mon, 14 Aug 2023 UTC via a KUAIZHOU-1A launch vehicle from the Xichang Space Center, China (XSC). Payload-class satellites include a variety of spacecraft equipped with specific instruments for various scientific and technological missions. These include communications satellites like Starlink; space stations such as the ISS; scientific satellites like the Hubble; Earth observation satellites from companies like Planet Labs, Umbra, and HawkEye 360; GPS; miniature CubeSats for education and research; and military/defense satellites.

Loading next visibility...
Identifier
57630, 2023-121E
Orbit
LEO
Country
Flag of CNCN / PRC
Related business
Manufacturer
IMI/CAS
Mission
Operational Commercial Communications
Bus & Motor
WN100, Unknown motor
Mass
40 kg wet, 40 kg dry
Launch date (UTC)
2023-08-14 (3 years ago)
Launch vehicle
KUAIZHOU-1A
Launch site
Xichang Space Center, China (XSC)
Object type
Payload
Rocket body
Debris
Shape & HBR
Box + 2 Pan, 1.0 m
Radar Cross Section
0.223 m², Medium (>0.1 m² and < 1m²)

Expand to show TLE details & history
Last TLE update: 22 hours ago

TLE from 22 hours ago
0 HEAD-3E
1 57630U 23121E   26172.53268747  .00000549  00000-0  13514-3 0  9995
2 57630  45.0032 266.1960 0008870 277.1304  82.8546 14.63873601152521
Epoch: 2026-06-21T12:47Z
TLE epoch observation values (Epoch: 2026-06-21T12:47:04.197Z)
Latitude
0.00001°
Longitude
164.69692°
Altitude
679.92 km
Speed
7.519 km/s
True Right ascension
17h 44m 47s
True Declination
0° 00' 00"
Sunlit
Object was in full shadow at epoch
Visualization orbit readout
Latitude
Unknown
Longitude
Unknown
Altitude
Unknown
Speed
Unknown
Apparent Right ascension
Unknown
Apparent Declination
Unknown
Sunlit
N/A
Visualization observer readout
Local Sidereal Time
21:32:35
Azimuth
Unknown
Elevation
Unknown
Doppler factor
Unknown
Orbital elements
Apogee altitude
688.521 km
Perigee altitude
675.995 km
Semi-major axis
7,060.395 km
Eccentricity
0.00089
Inclination
45.0032°
RAAN
266.196°
Arg. of periapsis
277.1304°
True anomaly
82.95547°
Mean anomaly
82.8546°
Eccentric anomaly
82.90503°
Mean motion
3.65847 °/min
Orbital period
98.4 mins
BSTAR
0.00013514
Loading maneuver chart data...
Computing Atmospheric mass density...
Loading historical data...
Loading historical data...
Loading historical data...
Loading historical data...
Loading historical data...
Loading historical data...
Loading historical data...
Other satellites on launch #121 in the year 2023 (2023-08-14 UTC)

Documentation

Showing up to 5 results
|